Weather History for Ostend, Belgium

Change the Weather History Date:

Wednesday, January 23, 2013

  Actual Average Record
Temperature  
Mean Temperature 23 °F -  
Max Temperature 25 °F 44 °F 51 °F (2001)
Min Temperature 21 °F 34 °F 21 °F (2013)
Degree Days  
Heating Degree Days 42    
Moisture  
Dew Point 21 °F    
Average Humidity 88    
Maximum Humidity 100    
Minimum Humidity 80    
Precipitation  
Precipitation 0.00 in - - ()
Sea Level Pressure  
Sea Level Pressure 29.79 in    
Wind  
Wind Speed 8 mph ()    
Max Wind Speed 12 mph    
Max Gust Speed -    
Visibility 0.8 miles    
Events Fog , Snow    
Averages and records for this station are not official NWS values.
T = Trace of Precipitation, MM = Missing Value Source: Averaged Metar Reports

Daily Weather History Graph

Daily Weather History Graph

Search for Another Location

Airport:

Trip Planner

Search our weather history database for the weather conditions in past years. The results will help you decide how hot, cold, wet, or windy it might be!

Date:

Astronomy

Jan. 23, 2013 Rise Set
Actual Time 8:37 AM CET 5:23 PM CET
Civil Twilight 8:00 AM CET 6:00 PM CET
Nautical Twilight 7:20 AM CET 6:41 PM CET
Astronomical Twilight 6:40 AM CET 7:20 PM CET
Moon 2:15 PM CET (1/23) 5:42 AM CET (1/23)
Length of Visible Light 9h 59m
Length of Day
8h 45m
Waxing Gibbous, 87% of the Moon is Illuminated
Jan 23
Waxing Gibbous
Jan 27
Full
Feb 3
Last Quarter
Feb 10
New
Feb 17
First Quarter

Hourly Weather History & Observations

Time (CET) Temp. Windchill Dew Point Humidity Pressure Visibility Wind Dir Wind Speed Gust Speed Precip Events Conditions
12:20 AM 23.0 °F 13.1 °F 19.4 °F 86% 29.74 in 1.2 mi ENE 9.2 mph - N/A   Mist
12:50 AM 23.0 °F 13.9 °F 19.4 °F 86% 29.74 in 1.2 mi ENE 8.1 mph - N/A   Mist
1:00 AM 22 °F - 19 °F 82% 29.75 in 1 mi ENE 8.9 mph - -   Mist
1:20 AM 23.0 °F 13.1 °F 19.4 °F 86% 29.74 in 1.2 mi ENE 9.2 mph - N/A   Mist
1:50 AM 23.0 °F 11.7 °F 19.4 °F 86% 29.74 in 0.9 mi ENE 11.5 mph - N/A   Mist
2:20 AM 21.2 °F 10.1 °F 21.2 °F 100% 29.74 in 0.4 mi ENE 10.4 mph - N/A Fog Light Freezing Fog
2:50 AM 23.0 °F 13.1 °F 19.4 °F 86% 29.74 in 0.5 mi ENE 9.2 mph - N/A Fog Light Freezing Fog
3:20 AM 23.0 °F 13.1 °F 23.0 °F 100% 29.74 in 0.3 mi ENE 9.2 mph - N/A Fog Light Freezing Fog
3:50 AM 24.8 °F 15.3 °F 24.8 °F 100% 29.74 in 0.2 mi ENE 9.2 mph - N/A Fog Light Freezing Fog
4:00 AM 24 °F - 22 °F 86% 29.76 in 0 mi ENE 8.9 mph - - Fog Heavy Fog
4:20 AM 24.8 °F 16.1 °F 24.8 °F 100% 29.74 in 0.4 mi ENE 8.1 mph - N/A Fog Light Freezing Fog
4:50 AM 24.8 °F 15.3 °F 24.8 °F 100% 29.77 in 0.5 mi ENE 9.2 mph - N/A Fog Light Freezing Fog
5:20 AM 24.8 °F 15.3 °F 21.2 °F 86% 29.77 in 0.2 mi East 9.2 mph - N/A Fog Light Freezing Fog
5:50 AM 24.8 °F 15.3 °F 24.8 °F 100% 29.77 in 0.2 mi East 9.2 mph - N/A Fog Light Freezing Fog
6:20 AM 23.0 °F 11.7 °F 23.0 °F 100% 29.74 in 0.4 mi ENE 11.5 mph - N/A Fog , Snow Light Freezing Fog
6:50 AM 23.0 °F 12.4 °F 23.0 °F 100% 29.77 in 0.3 mi ENE 10.4 mph - N/A Fog , Snow Light Freezing Fog
7:00 AM 24 °F - 24 °F 98% 29.78 in 0 mi ENE 8.9 mph - - Snow Snow Grains
7:20 AM 23.0 °F 13.1 °F 21.2 °F 93% 29.77 in 0.4 mi ENE 9.2 mph - N/A Fog , Snow Light Freezing Fog
7:50 AM 23.0 °F 13.1 °F 19.4 °F 86% 29.77 in 0.4 mi ENE 9.2 mph - N/A Fog , Snow Light Freezing Fog
8:20 AM 23.0 °F 13.1 °F 19.4 °F 86% 29.77 in 0.6 mi ENE 9.2 mph - N/A Fog , Snow Light Freezing Fog
8:50 AM 23.0 °F 13.1 °F 19.4 °F 86% 29.77 in 0.5 mi ENE 9.2 mph - N/A Fog , Snow Light Freezing Fog
9:20 AM 23.0 °F 13.9 °F 19.4 °F 86% 29.80 in 0.6 mi East 8.1 mph - N/A Fog , Snow Light Freezing Fog
9:50 AM 23.0 °F 13.1 °F 19.4 °F 86% 29.80 in 0.4 mi ENE 9.2 mph - N/A Fog , Snow Light Freezing Fog
10:00 AM 23 °F - 20 °F 83% 29.81 in 0 mi ENE 8.9 mph - - Snow Snow Grains
10:20 AM 23.0 °F 15.8 °F 19.4 °F 86% 29.80 in 0.5 mi East 5.8 mph - N/A Fog , Snow Light Freezing Fog
10:50 AM 23.0 °F 14.7 °F 21.2 °F 93% 29.80 in 0.6 mi East 6.9 mph - N/A Fog , Snow Light Freezing Fog
11:20 AM 23.0 °F 14.7 °F 21.2 °F 93% 29.83 in 0.2 mi East 6.9 mph - N/A Fog Light Freezing Fog
11:50 AM 24.8 °F 16.9 °F 21.2 °F 86% 29.83 in 0.1 mi East 6.9 mph - N/A Fog Light Freezing Fog
12:20 PM 24.8 °F 16.9 °F 21.2 °F 86% 29.80 in 0.2 mi East 6.9 mph - N/A Fog Light Freezing Fog
12:50 PM 24.8 °F 17.9 °F 23.0 °F 93% 29.80 in 0.4 mi East 5.8 mph - N/A Fog Light Freezing Fog
1:00 PM 25 °F - 22 °F 84% 29.82 in 0 mi East 6.7 mph - - Fog Partial Fog
1:20 PM 24.8 °F 17.9 °F 21.2 °F 86% 29.80 in 0.4 mi East 5.8 mph - N/A Fog , Snow Light Freezing Fog
1:50 PM 24.8 °F 16.9 °F 21.2 °F 86% 29.80 in 0.4 mi East 6.9 mph - N/A Fog Light Freezing Fog
2:20 PM 24.8 °F 16.9 °F 21.2 °F 86% 29.80 in 0.6 mi ENE 6.9 mph - N/A Fog Light Freezing Fog
2:50 PM 24.8 °F 16.9 °F 21.2 °F 86% 29.80 in 0.5 mi East 6.9 mph - N/A Fog Light Freezing Fog
3:20 PM 24.8 °F 19.1 °F 23.0 °F 93% 29.80 in 0.2 mi East 4.6 mph - N/A Fog Light Freezing Fog
3:50 PM 24.8 °F 17.9 °F 21.2 °F 86% 29.80 in 0.4 mi East 5.8 mph - N/A Fog Light Freezing Fog
4:00 PM 25 °F - 22 °F 81% 29.83 in 0 mi East 4.5 mph - - Fog Partial Fog
4:20 PM 23.0 °F 15.8 °F 19.4 °F 86% 29.80 in 0.6 mi ENE 5.8 mph - N/A   Partly Cloudy
4:50 PM 24.8 °F 17.9 °F 21.2 °F 86% 29.83 in 0.9 mi ENE 5.8 mph - N/A   Mist
5:20 PM 23.0 °F 14.7 °F 19.4 °F 86% 29.80 in 1.1 mi ENE 6.9 mph - N/A   Mist
5:50 PM 23.0 °F 14.7 °F 19.4 °F 86% 29.80 in 1.2 mi ENE 6.9 mph - N/A   Mist
6:20 PM 23.0 °F 13.9 °F 19.4 °F 86% 29.80 in 1.2 mi ENE 8.1 mph - N/A   Mist
6:50 PM 24.8 °F 16.1 °F 19.4 °F 80% 29.80 in 1.4 mi ENE 8.1 mph - N/A   Mist
7:00 PM 24 °F - 20 °F 80% 29.82 in 1 mi ENE 8.9 mph - -   Mist
7:20 PM 23.0 °F 13.9 °F 19.4 °F 86% 29.80 in 1.6 mi ENE 8.1 mph - N/A   Mist
7:50 PM 23.0 °F 13.9 °F 19.4 °F 86% 29.80 in 1.7 mi ENE 8.1 mph - N/A   Mist
8:20 PM 23.0 °F 13.1 °F 19.4 °F 86% 29.80 in 1.7 mi ENE 9.2 mph - N/A   Mist
8:50 PM 23.0 °F 13.1 °F 19.4 °F 86% 29.83 in 1.7 mi ENE 9.2 mph - N/A   Mist
9:20 PM 23.0 °F 13.9 °F 19.4 °F 86% 29.83 in 1.7 mi East 8.1 mph - N/A   Mist
9:50 PM 23.0 °F 13.9 °F 19.4 °F 86% 29.83 in 1.7 mi East 8.1 mph - N/A   Mist
10:00 PM 23 °F - 19 °F 80% 29.84 in 2 mi East 8.9 mph - -   Mist
10:20 PM 23.0 °F 13.9 °F 19.4 °F 86% 29.83 in 1.7 mi East 8.1 mph - N/A   Mist
10:50 PM 23.0 °F 14.7 °F 19.4 °F 86% 29.83 in 1.7 mi East 6.9 mph - N/A   Mist
11:20 PM 23.0 °F 13.9 °F 19.4 °F 86% 29.83 in 1.7 mi East 8.1 mph - N/A   Mist
11:50 PM 23.0 °F 13.1 °F 19.4 °F 86% 29.83 in 1.7 mi East 9.2 mph - N/A   Mist